| time (UTC) | temp F | wind direction | speed MPH | gust MPH | rain 1hr in | rain 24hr in | rain mn in | humidity % | barometer mb |
| 20260505023014 | 76 | 202 | 1.0 | 7.0 | 0.04 | 5.43 | 5.42 | 83 | |
| 20260505021514 | 75 | 217 | 4.0 | 5.0 | 0.04 | 5.43 | 5.42 | 85 | |
| 20260505020039 | 74 | 105 | 0.0 | 4.0 | 0.04 | 5.43 | 5.42 | 86 | |
| 20260505014538 | 74 | 226 | 1.0 | 3.0 | 0.04 | 5.43 | 5.42 | 87 | |
| 20260505013017 | 73 | 27 | 1.0 | 4.0 | 0.02 | 5.40 | 5.39 | 89 | |
| 20260505011518 | 73 | 59 | 2.0 | 3.0 | 0.02 | 5.40 | 5.38 | 89 | |
| 20260505010040 | 73 | 296 | 2.0 | 4.0 | 0.02 | 5.40 | 5.38 | 89 | |
| 20260505004541 | 72 | 221 | 3.0 | 3.0 | 0.02 | 5.40 | 5.38 | 89 | |
| 20260505003019 | 72 | 20 | 1.0 | 4.0 | 0.02 | 5.49 | 5.48 | 89 | |
| 20260505001519 | 72 | 256 | 0.0 | 5.0 | 0.02 | 5.49 | 5.36 | 88 | |
| 20260505000043 | 72 | 195 | 1.0 | 4.0 | 0.02 | 5.49 | 5.36 | 88 | |
| 20260504234543 | 72 | 357 | 1.0 | 4.0 | 0.02 | 5.49 | 5.36 | 88 | |
| 20260504233021 | 72 | 315 | 0.0 | 4.0 | 0.26 | 5.50 | 5.37 | 87 | |
| 20260504231519 | 73 | 289 | 3.0 | 7.0 | 0.25 | 5.49 | 5.33 | 86 | |
| 20260504230040 | 73 | 216 | 0.0 | 7.0 | 0.23 | 5.48 | 5.31 | 86 | |
| 20260504224521 | 73 | 211 | 4.0 | 8.0 | 0.15 | 5.40 | 5.23 | 85 | |
| 20260504223021 | 73 | 269 | 4.0 | 5.0 | 0.03 | 5.25 | 5.08 | 85 | |
| 20260504221521 | 73 | 347 | 1.0 | 6.0 | 0.03 | 5.25 | 5.08 | 85 | |
| 20260504220043 | 73 | 271 | 2.0 | 7.0 | 0.03 | 5.25 | 5.08 | 84 | |
| 20260504214523 | 72 | 160 | 1.0 | 4.0 | 0.01 | 5.23 | 5.06 | 86 | |
| 20260504213024 | 72 | 275 | 0.0 | 5.0 | 3.39 | 5.22 | 5.05 | 86 | |
| 20260504211502 | 72 | 29 | 2.0 | 5.0 | 2.64 | 4.47 | 4.30 | 85 | |
| 20260504210003 | 72 | 296 | 2.0 | 5.0 | 1.13 | 2.96 | 2.79 | 86 | |
| 20260504204525 | 72 | 242 | 0.0 | 3.0 | 0.14 | 1.97 | 1.80 | 85 | |
| 20260504203026 | 72 | 6 | 1.0 | 4.0 | 1.52 | 1.87 | 1.70 | 86 | |
| 20260504201505 | 72 | 24 | 4.0 | 5.0 | 0.85 | 1.16 | 0.99 | 87 | |
| 20260504200005 | 72 | 317 | 1.0 | 4.0 | 0.46 | 0.77 | 0.61 | 87 | |
| 20260504194529 | 72 | 62 | 0.0 | 3.0 | 0.21 | 0.52 | 0.36 | 86 | |
| 20260504193029 | 72 | 157 | 0.0 | 3.0 | 0.15 | 0.32 | 0.15 | 84 | |
| 20260504191508 | 73 | 352 | 0.0 | 5.0 | 0.02 | 0.19 | 0.02 | 82 | |
| 20260504190005 | 73 | 211 | 1.0 | 5.0 | 0.01 | 0.18 | 0.01 | 80 | |
| 20260504184526 | 74 | 243 | 1.0 | 6.0 | 0.01 | 0.18 | 0.01 | 79 | |
| 20260504183007 | 74 | 205 | 2.0 | 5.0 | 0.00 | 0.17 | 0.00 | 77 | |
| 20260504181552 | 74 | 152 | 2.0 | 7.0 | 0.00 | 0.16 | 0.16 | 78 | |
| 20260504174530 | 74 | 161 | 4.0 | 5.0 | 0.00 | 0.16 | 0.16 | 77 | |
| 20260504173008 | 74 | 186 | 0.0 | 3.0 | 0.00 | 0.16 | 0.16 | 80 | |
| 20260504171531 | 74 | 180 | 2.0 | 6.0 | 0.00 | 0.16 | 0.16 | 78 | |
| 20260504081503 | 92 | 113 | 16.0 | 20.0 | 0.00 | 0.16 | 0.16 | 39 | |
| 20260504050008 | 84 | 276 | 6.0 | 15.0 | 0.00 | 0.16 | 0.16 | 61 | |
| 20260504044527 | 83 | 231 | 8.0 | 17.0 | 0.00 | 0.16 | 0.16 | 59 | |
| 20260504043004 | 83 | 217 | 7.0 | 15.0 | 0.00 | 0.16 | 0.16 | 58 | |
| 20260504041545 | 83 | 246 | 9.0 | 15.0 | 0.00 | 0.16 | 0.16 | 58 | |
| 20260504040023 | 83 | 68 | 8.0 | 8.0 | 0.00 | 0.16 | 0.16 | 59 | |
| 20260504034520 | 83 | 40 | 4.0 | 10.0 | 0.00 | 0.16 | 0.16 | 62 | |
| 20260504033039 | 83 | 239 | 5.0 | 10.0 | 0.00 | 0.16 | 0.16 | 58 | |
| 20260504031517 | 81 | 140 | 4.0 | 9.0 | 0.00 | 0.16 | 0.16 | 61 | |
| 20260504030018 | 80 | 182 | 5.0 | 10.0 | 0.00 | 0.16 | 0.16 | 59 | |
| 20260504024540 | 78 | 172 | 5.0 | 9.0 | 0.00 | 0.16 | 0.16 | 68 |